K7DTF Weather Reports


Display with metric or nautical units.
time (UTC)temp
F
wind
direction
speed
MPH
gust
MPH
rain 1hr
in
rain 24hr
in
rain mn
in
humidity
%
barometer
mb
20260505124518 50 71 1.0 2.0 0.00 0.00 0.00 84 1008.7
20260505124017 50 76 1.0 2.0 0.00 0.00 0.00 85 1008.6
20260505123518 50 81 1.0 2.0 0.00 0.00 0.00 84 1008.6
20260505123018 50 85 1.0 2.0 0.00 0.00 0.00 84 1008.5
20260505122518 50 68 1.0 2.0 0.00 0.00 0.00 84 1008.5
20260505122240 50 59 1.0 2.0 0.00 0.00 0.00 85 1008.5
20260505121513 50 82 1.0 2.0 0.00 0.00 0.00 85 1008.5
20260505121232 50 89 1.0 2.0 0.00 0.00 0.00 85 1008.4
20260505120513 50 89 1.0 2.0 0.00 0.00 0.00 84 1008.4
20260505120013 50 64 0.0 2.0 0.00 0.00 0.00 85 1008.3
20260505115513 50 68 0.0 1.0 0.00 0.00 0.00 84 1008.3
20260505115013 50 58 1.0 2.0 0.00 0.00 0.00 84 1008.3
20260505114512 50 85 2.0 3.0 0.00 0.00 0.00 84 1008.3
20260505114014 50 85 2.0 3.0 0.00 0.00 0.00 84 1008.3
20260505113507 50 93 1.0 3.0 0.00 0.00 0.00 84 1008.2
20260505113001 50 94 1.0 3.0 0.00 0.00 0.00 83 1008.1
20260505112455 50 93 1.0 3.0 0.00 0.00 0.00 83 1008.1
20260505111949 50 93 0.0 0.0 0.00 0.00 0.00 83 1008.0
20260505111443 51 85 0.0 0.0 0.00 0.00 0.00 83 1008.0
20260505110937 51 70 0.0 0.0 0.00 0.00 0.00 83 1007.9
20260505110431 51 81 0.0 0.0 0.00 0.00 0.00 82 1007.9
20260505101905 53 60 2.0 2.0 0.00 0.00 0.00 80 1007.5
20260505101403 53 59 2.0 3.0 0.00 0.00 0.00 80 1007.5
20260505100904 53 70 2.0 3.0 0.00 0.00 0.00 80 1007.3
20260505100633 53 68 2.0 3.0 0.00 0.00 0.00 80 1007.1
20260505095901 53 103 2.0 4.0 0.00 0.00 0.00 80 1007.2
20260505095400 53 95 2.0 4.0 0.00 0.00 0.00 80 1007.2
20260505094900 52 90 2.0 3.0 0.00 0.00 0.00 80 1007.1
20260505094839 53 91 1.0 2.0 0.00 0.00 0.00 80 1007.1
20260505093900 52 87 1.0 2.0 0.00 0.00 0.00 80 1007.1
20260505093400 53 87 1.0 2.0 0.00 0.00 0.00 80 1007.1
20260505092900 53 91 1.0 3.0 0.00 0.00 0.00 79 1007.0
20260505092400 53 79 1.0 3.0 0.00 0.00 0.00 79 1007.0
20260505091900 53 74 1.0 2.0 0.00 0.00 0.00 78 1007.0
20260505091611 54 84 1.0 2.0 0.00 0.00 0.00 78 1007.0
20260505090848 54 62 1.0 2.0 0.00 0.00 0.00 77 1006.9
20260505090342 55 57 1.0 2.0 0.00 0.00 0.00 76 1006.8
20260505090323 55 57 1.0 2.0 0.00 0.00 0.00 76 1006.8
20260505085331 55 57 1.0 2.0 0.00 0.00 0.00 76 1006.8
20260505084825 55 57 1.0 2.0 0.00 0.00 0.00 76 1006.8
20260505084319 55 66 1.0 2.0 0.00 0.00 0.00 76 1006.7
20260505084031 56 95 1.0 2.0 0.00 0.00 0.00 75 1006.7
20260505083307 56 66 1.0 3.0 0.00 0.00 0.00 75 1006.7
20260505082801 56 74 1.0 3.0 0.00 0.00 0.00 75 1006.6
20260505082254 56 89 2.0 3.0 0.00 0.00 0.00 75 1006.7
20260505081749 56 85 2.0 4.0 0.00 0.00 0.00 76 1006.7
20260505081242 55 94 2.0 6.0 0.00 0.00 0.00 77 1006.6
20260505080736 55 101 2.0 6.0 0.00 0.00 0.00 78 1006.5
20260505080230 54 109 2.0 5.0 0.00 0.00 0.00 79 1006.4
20260505075725 54 162 1.0 5.0 0.00 0.00 0.00 79 1006.3
20260505075219 54 203 0.0 5.0 0.00 0.00 0.00 79 1006.4
20260505074712 54 199 0.0 1.0 0.00 0.00 0.00 79 1006.4
20260505074207 54 199 0.0 2.0 0.00 0.00 0.00 79 1006.4
20260505073701 54 199 0.0 2.0 0.00 0.00 0.00 80 1006.2
20260505073155 54 77 0.0 0.0 0.00 0.00 0.00 79 1006.1
20260505072649 54 77 0.0 0.0 0.00 0.00 0.00 79 1006.0
20260505072143 55 77 0.0 0.0 0.00 0.00 0.00 79 1005.9
20260505071636 55 71 0.0 0.0 0.00 0.00 0.00 79 1005.8
20260505071130 55 76 0.0 0.0 0.00 0.00 0.00 78 1005.8
20260505070625 55 76 0.0 0.0 0.00 0.00 0.00 78 1005.9
20260505070118 55 76 0.0 0.0 0.00 0.00 0.00 77 1005.7
20260505065613 56 76 0.0 0.0 0.00 0.00 0.00 77 1005.7
20260505065107 56 76 0.0 0.0 0.00 0.00 0.00 76 1005.6
20260505064601 56 76 0.0 0.0 0.00 0.00 0.00 76 1005.6
20260505064054 57 76 0.0 0.0 0.00 0.00 0.00 76 1005.6
20260505063549 57 76 0.0 2.0 0.00 0.00 0.00 74 1005.5
20260505063043 58 76 1.0 2.0 0.00 0.00 0.00 73 1005.6
20260505062540 58 69 2.0 3.0 0.00 0.00 0.00 74 1005.6
20260505062039 58 94 1.0 3.0 0.00 0.00 0.00 74 1005.7
20260505062022 58 76 1.0 3.0 0.00 0.00 0.00 74 1005.6
20260505061043 58 76 1.0 3.0 0.00 0.00 0.00 73 1005.6
20260505060539 58 78 1.0 3.0 0.00 0.00 0.00 73 1005.6
20260505060256 58 84 1.0 3.0 0.00 0.00 0.00 73 1005.5
20260505055536 58 85 1.0 2.0 0.00 0.00 0.00 74 1005.4
20260505055036 58 88 1.0 2.0 0.00 0.00 0.00 73 1005.4
20260505054536 59 76 1.0 2.0 0.00 0.00 0.00 73 1005.3
20260505054253 59 106 1.0 2.0 0.00 0.00 0.00 73 1005.2
20260505053801 59 88 1.0 2.0 0.00 0.00 0.00 72 1005.3
20260505053035 59 64 0.0 2.0 0.00 0.00 0.00 72 1005.3
20260505052535 59 102 0.0 3.0 0.00 0.00 0.00 72 1005.3
20260505052033 60 111 1.0 3.0 0.00 0.00 0.00 72 1005.3
20260505051530 60 147 1.0 3.0 0.00 0.00 0.00 71 1005.3
20260505051030 60 93 1.0 3.0 0.00 0.00 0.00 71 1005.3
20260505050529 60 90 1.0 3.0 0.00 0.00 0.00 71 1005.3
20260505041440 63 140 1.0 3.0 0.00 0.00 0.00 68 1005.4
20260505040935 64 116 1.0 4.0 0.00 0.00 0.00 68 1005.3
20260505040428 64 87 1.0 4.0 0.00 0.00 0.00 67 1005.4
20260505035922 65 89 1.0 2.0 0.00 0.00 0.00 67 1005.3
20260505035416 65 101 1.0 6.0 0.00 0.00 0.00 65 1005.2
20260505034910 66 118 2.0 7.0 0.00 0.00 0.00 64 1005.2
20260505034627 66 85 2.0 7.0 0.00 0.00 0.00 64 1005.2
20260505033904 67 108 2.0 4.0 0.00 0.00 0.00 64 1005.0
20260505033403 68 137 1.0 4.0 0.00 0.00 0.00 63 1004.9
20260505032904 69 145 2.0 6.0 0.00 0.00 0.00 62 1004.8
20260505032403 69 112 3.0 8.0 0.00 0.00 0.00 60 1004.7
20260505031904 70 107 4.0 8.0 0.00 0.00 0.00 59 1004.6
20260505031404 70 91 4.0 6.0 0.00 0.00 0.00 58 1004.7
20260505030903 71 93 3.0 6.0 0.00 0.00 0.00 57 1004.6
20260505030403 71 81 2.0 6.0 0.00 0.00 0.00 59 1004.6
20260505025904 72 79 1.0 3.0 0.00 0.00 0.00 59 1004.5
20260505025405 73 97 1.0 2.0 0.00 0.00 0.00 58 1004.5
20260505024904 74 101 1.0 2.0 0.00 0.00 0.00 57 1004.4
20260505024401 75 128 1.0 2.0 0.00 0.00 0.00 56 1004.3
20260505023901 76 110 1.0 2.0 0.00 0.00 0.00 53 1004.4
20260505023632 77 100 1.0 3.0 0.00 0.00 0.00 51 1004.4
20260505023124 78 101 1.0 3.0 0.00 0.00 0.00 46 1004.4
20260505022400 79 129 1.0 2.0 0.00 0.00 0.00 45 1004.4
20260505021900 80 168 0.0 2.0 0.00 0.00 0.00 43 1004.4
20260505021359 81 157 1.0 3.0 0.00 0.00 0.00 41 1004.5
20260505020900 81 158 1.0 3.0 0.00 0.00 0.00 38 1004.4
20260505020400 82 171 1.0 4.0 0.00 0.00 0.00 36 1004.4
20260505020124 82 178 1.0 4.0 0.00 0.00 0.00 35 1004.5
20260505015356 82 197 1.0 3.0 0.00 0.00 0.00 35 1004.5
20260505014856 82 165 2.0 4.0 0.00 0.00 0.00 34 1004.5
20260505014356 82 189 2.0 4.0 0.00 0.00 0.00 36 1004.6
20260505013855 82 257 2.0 4.0 0.00 0.00 0.00 35 1004.7
20260505013355 82 218 2.0 4.0 0.00 0.00 0.00 35 1004.7
20260505012857 82 238 3.0 5.0 0.00 0.00 0.00 35 1004.7
20260505012355 83 220 3.0 5.0 0.00 0.00 0.00 33 1004.8
20260505011857 83 179 4.0 7.0 0.00 0.00 0.00 32 1004.8
20260505011356 83 191 3.0 7.0 0.00 0.00 0.00 33 1004.8
20260505010857 83 193 3.0 6.0 0.00 0.00 0.00 33 1004.9
20260505010615 84 205 3.0 5.0 0.00 0.00 0.00 33 1005.0
20260505005855 84 214 2.0 5.0 0.00 0.00 0.00 34 1005.0
20260505005355 84 185 3.0 5.0 0.00 0.00 0.00 33 1005.0
20260505004858 83 213 3.0 6.0 0.00 0.00 0.00 32 1005.0
20260505004357 85 220 2.0 6.0 0.00 0.00 0.00 31 1005.2
20260505003858 86 134 2.0 5.0 0.00 0.00 0.00 32 1005.0
20260505003356 86 129 2.0 4.0 0.00 0.00 0.00 32 1005.0
20260505002856 86 167 2.0 4.0 0.00 0.00 0.00 34 1005.0
20260505002355 86 100 2.0 5.0 0.00 0.00 0.00 31 1005.2
20260505001856 87 116 2.0 6.0 0.00 0.00 0.00 29 1005.3
20260505001356 87 145 2.0 6.0 0.00 0.00 0.00 31 1005.4
20260505000857 87 270 2.0 6.0 0.00 0.00 0.00 29 1005.3
20260505000355 88 108 3.0 6.0 0.00 0.00 0.00 30 1005.4
20260504235854 87 120 3.0 6.0 0.00 0.00 0.00 28 1005.4
20260504235351 87 74 3.0 9.0 0.00 0.00 0.00 28 1005.4
20260504234851 87 97 3.0 9.0 0.00 0.00 0.00 28 1005.4
20260504234353 87 137 3.0 7.0 0.00 0.00 0.00 28 1005.4
20260504233851 87 90 3.0 7.0 0.00 0.00 0.00 30 1005.4
20260504233614 86 168 2.0 7.0 0.00 0.00 0.00 28 1005.4
20260504232852 86 141 2.0 7.0 0.00 0.00 0.00 32 1005.5
20260504232348 85 260 2.0 7.0 0.00 0.00 0.00 32 1005.5
20260504232341 84 220 2.0 6.0 0.00 0.00 0.00 30 1005.4
20260504231334 85 189 3.0 5.0 0.00 0.00 0.00 29 1005.5
20260504231052 85 162 3.0 7.0 0.00 0.00 0.00 31 1005.5
20260504230321 86 226 3.0 7.0 0.00 0.00 0.00 31 1005.6
20260504225815 86 176 3.0 7.0 0.00 0.00 0.00 28 1005.7
20260504225534 85 171 3.0 7.0 0.00 0.00 0.00 28 1005.7
20260504224804 84 233 3.0 8.0 0.00 0.00 0.00 29 1005.7
20260504224257 84 286 2.0 8.0 0.00 0.00 0.00 28 1005.7
20260504223752 84 191 2.0 5.0 0.00 0.00 0.00 29 1005.9
20260504223245 83 340 2.0 6.0 0.00 0.00 0.00 29 1005.8
20260504222739 84 320 3.0 8.0 0.00 0.00 0.00 29 1005.9
20260504222455 86 305 4.0 8.0 0.00 0.00 0.00 26 1005.9
20260504221725 86 187 3.0 8.0 0.00 0.00 0.00 30 1005.9
20260504221220 85 164 2.0 4.0 0.00 0.00 0.00 29 1006.0
20260504220714 84 196 3.0 7.0 0.00 0.00 0.00 30 1006.1
20260504220208 85 224 3.0 7.0 0.00 0.00 0.00 29 1006.3
20260504215702 85 226 3.0 5.0 0.00 0.00 0.00 31 1006.3
20260504215156 84 219 3.0 5.0 0.00 0.00 0.00 29 1006.4
20260504214649 85 225 4.0 7.0 0.00 0.00 0.00 28 1006.5
20260504214144 85 184 3.0 7.0 0.00 0.00 0.00 33 1006.5
20260504213637 84 166 2.0 5.0 0.00 0.00 0.00 30 1006.6
20260504213132 83 190 3.0 6.0 0.00 0.00 0.00 30 1006.7
20260504212626 84 311 3.0 6.0 0.00 0.00 0.00 32 1006.7
20260504212119 84 212 3.0 6.0 0.00 0.00 0.00 31 1006.7
20260504211834 82 272 3.0 6.0 0.00 0.00 0.00 37 1006.7
20260504211327 82 251 3.0 9.0 0.00 0.00 0.00 31 1006.8
20260504210602 82 296 4.0 9.0 0.00 0.00 0.00 33 1006.8
20260504210055 82 289 3.0 6.0 0.00 0.00 0.00 37 1006.9
20260504205550 82 229 3.0 6.0 0.00 0.00 0.00 35 1006.9
20260504205303 83 171 3.0 7.0 0.00 0.00 0.00 37 1006.9
20260504204538 81 166 3.0 7.0 0.00 0.00 0.00 36 1007.0
20260504204257 81 251 3.0 8.0 0.00 0.00 0.00 36 1007.1
20260504203526 81 252 3.0 8.0 0.00 0.00 0.00 35 1007.1
20260504203019 82 220 3.0 8.0 0.00 0.00 0.00 37 1007.1
20260504202514 80 319 4.0 9.0 0.00 0.00 0.00 37 1007.2
20260504202008 80 303 4.0 9.0 0.00 0.00 0.00 37 1007.2
20260504201502 80 218 2.0 5.0 0.00 0.00 0.00 40 1007.2
20260504200956 81 267 3.0 6.0 0.00 0.00 0.00 38 1007.2
20260504200450 82 193 3.0 6.0 0.00 0.00 0.00 42 1007.2
20260504195944 81 209 3.0 6.0 0.00 0.00 0.00 39 1007.2
20260504195438 80 247 3.0 6.0 0.00 0.00 0.00 38 1007.3
20260504194932 79 184 3.0 8.0 0.00 0.00 0.00 43 1007.3
20260504194425 79 295 4.0 8.0 0.00 0.00 0.00 44 1007.4
20260504193920 80 239 3.0 8.0 0.00 0.00 0.00 44 1007.4
20260504193413 81 280 3.0 6.0 0.00 0.00 0.00 40 1007.3
20260504192907 80 208 3.0 6.0 0.00 0.00 0.00 44 1007.3
20260504192402 78 258 3.0 7.0 0.00 0.00 0.00 42 1007.4
20260504192118 80 187 3.0 7.0 0.00 0.00 0.00 43 1007.4
20260504191349 79 237 3.0 8.0 0.00 0.00 0.00 41 1007.5
20260504190844 78 293 3.0 8.0 0.00 0.00 0.00 45 1007.4
20260504190337 78 293 3.0 7.0 0.00 0.00 0.00 42 1007.5
20260504185831 77 307 3.0 7.0 0.00 0.00 0.00 42 1007.5
20260504185326 78 228 3.0 8.0 0.00 0.00 0.00 40 1007.5
20260504184826 77 193 3.0 8.0 0.00 0.00 0.00 44 1007.6
20260504184551 77 286 3.0 8.0 0.00 0.00 0.00 39 1007.5
20260504183827 77 320 4.0 8.0 0.00 0.00 0.00 41 1007.5
20260504183326 77 213 3.0 8.0 0.00 0.00 0.00 39 1007.6
20260504182825 77 330 3.0 6.0 0.00 0.00 0.00 38 1007.6
20260504182323 77 222 3.0 7.0 0.00 0.00 0.00 39 1007.7
20260504181820 77 247 3.0 7.0 0.00 0.00 0.00 40 1007.7
20260504181320 76 283 3.0 8.0 0.00 0.00 0.00 42 1007.7
20260504180822 76 215 3.0 8.0 0.00 0.00 0.00 38 1007.9
20260504180548 76 313 3.0 8.0 0.00 0.00 0.00 39 1007.8
20260504175821 74 209 3.0 8.0 0.00 0.00 0.00 40 1007.9
20260504175321 74 308 3.0 8.0 0.00 0.00 0.00 39 1007.9
20260504174822 74 222 3.0 7.0 0.00 0.00 0.00 40 1007.9
20260504174318 74 195 2.0 7.0 0.00 0.00 0.00 44 1008.0
20260504173819 74 248 3.0 7.0 0.00 0.00 0.00 44 1007.9
20260504173319 74 205 4.0 9.0 0.00 0.00 0.00 46 1007.9
20260504172819 74 304 4.0 9.0 0.00 0.00 0.00 43 1007.9
20260504172319 73 211 4.0 8.0 0.00 0.00 0.00 45 1007.9
20260504172044 73 222 4.0 7.0 0.00 0.00 0.00 44 1007.9
20260504171318 73 222 4.0 7.0 0.00 0.00 0.00 44 1007.9
20260504170818 73 274 4.0 7.0 0.00 0.00 0.00 42 1007.9
20260504170320 73 236 3.0 7.0 0.00 0.00 0.00 45 1008.0
20260504160316 70 185 1.0 4.0 0.00 0.00 0.00 50 1007.9
20260504150816 64 358 0.0 2.0 0.00 0.00 0.00 58 1007.7
20260504150315 63 33 1.0 2.0 0.00 0.00 0.00 62 1007.7
20260504141304 54 56 1.0 2.0 0.00 0.00 0.00 79 1007.5
20260504140802 53 54 1.0 3.0 0.00 0.00 0.00 80 1007.4
20260504140303 53 46 1.0 3.0 0.00 0.00 0.00 81 1007.4